This is the latest recevied weather packets stored in our database for station/object WB4ZUT. If no packets are shown the sender has not sent any weather packets the latest 10 day(s).
| Time | Temp. | Humidity | Pressure | Rain* | Wind** | Luminosity | Snow |
|---|---|---|---|---|---|---|---|
| 1777850750 | 19.44° C | 45% | 1012.3 hPa | 0 mm | - | 95 W/m² | - |
| 1777850447 | 20° C | 45% | 1012.3 hPa | 0 mm | - | 118 W/m² | - |
| 1777850145 | 20° C | 44% | 1012.3 hPa | 0 mm | - | 117 W/m² | - |
| 1777849841 | 20° C | 44% | 1012.3 hPa | 0 mm | - | 154 W/m² | - |
| 1777849538 | 20° C | 45% | 1012.5 hPa | 0 mm | - | 167 W/m² | - |
| 1777849236 | 20° C | 44% | 1012.6 hPa | 0 mm | - | 189 W/m² | - |
| 1777848932 | 20° C | 44% | 1012.6 hPa | 0 mm | - | 197 W/m² | - |
| 1777848627 | 20° C | 45% | 1012.7 hPa | 0 mm | - | 211 W/m² | - |
| 1777848325 | 20° C | 44% | 1012.5 hPa | 0 mm | - | 212 W/m² | - |
| 1777848023 | 20° C | 44% | 1012.5 hPa | 0 mm | - | 229 W/m² | - |
| 1777847721 | 20° C | 45% | 1012.8 hPa | 0 mm | - | 213 W/m² | - |
| 1777847416 | 20° C | 45% | 1012.7 hPa | 0 mm | - | 246 W/m² | - |
| 1777847114 | 20° C | 44% | 1013 hPa | 0 mm | - | 259 W/m² | - |
| 1777846812 | 20° C | 44% | 1013.1 hPa | 0 mm | - | 293 W/m² | - |
| 1777846510 | 20.56° C | 44% | 1013.1 hPa | 0 mm | - | 312 W/m² | - |
| 1777846207 | 20° C | 45% | 1013.2 hPa | 0 mm | - | 332 W/m² | - |
| 1777845903 | 20° C | 44% | 1013.3 hPa | 0 mm | - | 338 W/m² | - |
| 1777845600 | 20° C | 45% | 1013.3 hPa | 0 mm | - | 380 W/m² | - |
| 1777845297 | 20° C | 46% | 1013.5 hPa | 0 mm | - | 388 W/m² | - |
| 1777844994 | 20° C | 44% | 1013.6 hPa | 0 mm | - | 423 W/m² | - |
| 1777844692 | 20° C | 45% | 1013.7 hPa | 0 mm | - | 460 W/m² | - |
| 1777844389 | 20° C | 43% | 1013.6 hPa | 0 mm | - | 463 W/m² | - |
| 1777844088 | 20° C | 44% | 1013.8 hPa | 0 mm | - | 418 W/m² | - |
| 1777843784 | 20° C | 47% | 1014.1 hPa | 0 mm | - | 445 W/m² | - |
| 1777843481 | 20° C | 45% | 1014.1 hPa | 0 mm | - | 464 W/m² | - |
* Rain latest hour (hover to see other rain measurements)
** Current wind speed in m/s (hover to see current wind gust speed)